EW3904 Weather Reports


Display with metric or nautical units.
time (UTC)temp
F
wind
direction
speed
MPH
gust
MPH
rain 1hr
in
rain 24hr
in
rain mn
in
humidity
%
barometer
mb
20260903211253 95 90 12.0 12.0 0.00 0.00 0.00 45 1017.0
20260903210253 96 210 2.0 7.0 0.00 0.00 0.00 44 1017.0
20260903205253 96 181 3.0 8.0 0.00 0.00 0.00 46 1017.3
20260903204253 96 76 4.0 7.0 0.00 0.00 0.00 46 1017.4
20260903203253 96 90 7.0 9.0 0.00 0.00 0.00 46 1017.4
20260903201252 96 147 4.0 7.0 0.00 0.00 0.00 47 1017.8
20260903200253 95 192 2.0 10.0 0.00 0.00 0.00 50 1017.8
20260903195252 96 108 8.0 10.0 0.00 0.00 0.00 48 1018.1
20260903194252 95 88 6.0 10.0 0.00 0.00 0.00 49 1018.2
20260903193252 95 137 4.0 13.0 0.00 0.00 0.00 48 1018.3
20260903192252 95 77 6.0 8.0 0.00 0.00 0.00 49 1018.4
20260903190252 94 108 2.0 10.0 0.00 0.00 0.00 52 1018.5
20260903182252 94 199 5.0 10.0 0.00 0.00 0.00 53 1018.9
20260903181252 94 142 3.0 9.0 0.00 0.00 0.00 53 1019.0
20260903180252 93 126 4.0 6.0 0.00 0.00 0.00 54 1019.0
20260903175251 93 128 1.0 6.0 0.00 0.00 0.00 55 1019.1
20260903174252 94 176 3.0 8.0 0.00 0.00 0.00 54 1019.2
20260903172251 93 99 3.0 12.0 0.00 0.00 0.00 54 1019.6
20260903171251 93 175 4.0 10.0 0.00 0.00 0.00 54 1019.7
20260903165251 92 128 2.0 8.0 0.00 0.00 0.00 56 1020.0
20260903164251 92 148 4.0 9.0 0.00 0.00 0.00 57 1020.1
20260903163251 92 88 6.0 7.0 0.00 0.00 0.00 59 1020.1
20260903162251 92 76 4.0 4.0 0.00 0.00 0.00 59 1020.2
20260903161251 91 150 1.0 6.0 0.00 0.00 0.00 60 1020.3
20260903160251 91 175 2.0 7.0 0.00 0.00 0.00 61 1020.3
20260903155251 90 140 6.0 6.0 0.00 0.00 0.00 62 1020.5
20260903153251 90 10 1.0 8.0 0.00 0.00 0.00 61 1020.5
20260903152250 90 134 2.0 3.0 0.00 0.00 0.00 66 1020.6
20260903151251 89 113 2.0 7.0 0.00 0.00 0.00 65 1020.5
20260903150250 88 14 0.0 3.0 0.00 0.00 0.00 67 1020.5
20260903145250 87 267 0.0 3.0 0.00 0.00 0.00 69 1020.4
20260903144250 87 186 2.0 2.0 0.00 0.00 0.00 70 1020.5
20260903142250 87 77 3.0 3.0 0.00 0.00 0.00 73 1020.4
20260903141250 85 95 1.0 2.0 0.00 0.00 0.00 71 1020.5
20260903135250 84 144 0.0 2.0 0.00 0.00 0.00 74 1020.5
20260903134250 84 48 1.0 2.0 0.00 0.00 0.00 78 1020.4
20260903133250 83 131 0.0 2.0 0.00 0.00 0.00 77 1020.4
20260903132249 82 88 0.0 1.0 0.00 0.00 0.00 78 1020.5
20260903131250 81 37 1.0 2.0 0.00 0.00 0.00 83 1020.6
20260903130249 81 162 0.0 0.0 0.00 0.00 0.00 81 1020.5
20260903125249 79 162 0.0 0.0 0.00 0.00 0.00 83 1020.5
20260903124249 78 162 0.0 0.0 0.00 0.00 0.00 86 1020.6
20260903123249 77 162 0.0 0.0 0.00 0.00 0.00 88 1020.5
20260903122249 75 162 0.0 0.0 0.00 0.00 0.00 91 1020.4
20260903120249 73 162 0.0 0.0 0.00 0.00 0.00 93 1020.2
20260903115249 73 162 0.0 0.0 0.00 0.00 0.00 93 1020.2
20260903114249 73 163 0.0 0.0 0.00 0.00 0.00 93 1020.0
20260903113249 73 162 0.0 0.0 0.00 0.00 0.00 93 1020.0
20260903111248 72 162 0.0 0.0 0.00 0.00 0.00 93 1019.7
20260903110248 72 162 0.0 0.0 0.00 0.00 0.00 93 1019.6
20260903105249 72 162 0.0 0.0 0.00 0.00 0.00 93 1019.7
20260903102248 72 162 0.0 0.0 0.00 0.00 0.00 93 1019.7
20260903101248 73 162 0.0 0.0 0.00 0.00 0.00 93 1019.6
20260903100248 73 162 0.0 0.0 0.00 0.00 0.00 92 1019.4
20260903095248 73 162 0.0 0.0 0.00 0.00 0.00 92 1019.4
20260903094248 73 162 0.0 0.0 0.00 0.00 0.00 92 1019.3
20260903093248 73 162 0.0 0.0 0.00 0.00 0.00 92 1019.3
20260903092247 73 162 0.0 0.0 0.00 0.00 0.00 92 1019.4
20260903091248 73 162 0.0 0.0 0.00 0.00 0.00 92 1019.2
20260903090248 73 162 0.0 0.0 0.00 0.00 0.00 92 1019.3
20260903085248 73 162 0.0 0.0 0.00 0.00 0.00 92 1019.4
20260903084248 73 163 0.0 0.0 0.00 0.00 0.00 92 1019.5
20260903083247 74 162 0.0 0.0 0.00 0.00 0.00 91 1019.4
20260903082247 74 162 0.0 0.0 0.00 0.00 0.00 90 1019.4
20260903080247 74 162 0.0 0.0 0.00 0.00 0.00 91 1019.4
20260903075247 74 162 0.0 0.0 0.00 0.00 0.00 91 1019.5
20260903074247 74 162 0.0 0.0 0.00 0.00 0.00 89 1019.5
20260903073246 75 162 0.0 0.0 0.00 0.00 0.00 89 1019.4
20260903072247 75 162 0.0 0.0 0.00 0.00 0.00 90 1019.4
20260903071247 75 162 0.0 0.0 0.00 0.00 0.00 89 1019.4
20260903070247 75 163 0.0 0.0 0.00 0.00 0.00 89 1019.5
20260903064247 75 162 0.0 0.0 0.00 0.00 0.00 88 1019.5
20260903061246 76 162 0.0 1.0 0.00 0.00 0.00 87 1019.7
20260903054246 75 163 0.0 0.0 0.00 0.00 0.00 87 1019.6
20260903053246 76 162 0.0 0.0 0.00 0.00 0.00 88 1019.8
20260903052246 76 162 0.0 0.0 0.00 0.00 0.00 87 1019.8
20260903051246 76 163 0.0 0.0 0.00 0.00 0.00 86 1019.6
20260903050245 76 162 0.0 0.0 0.00 0.00 0.00 86 1019.7
20260903045246 76 162 0.0 0.0 0.00 0.00 0.00 85 1019.6
20260903044246 77 162 0.0 0.0 0.00 0.00 0.00 85 1019.8
20260903043245 77 162 0.0 0.0 0.00 0.00 0.00 85 1019.7
20260903042246 77 162 0.0 0.0 0.00 0.00 0.00 83 1019.8
20260903041246 77 162 0.0 0.0 0.00 0.00 0.00 83 1019.6
20260903040246 78 163 0.0 0.0 0.00 0.00 0.00 83 1019.7
20260903035245 78 162 0.0 0.0 0.00 0.00 0.00 83 1019.5
20260903034246 78 162 0.0 0.0 0.00 0.00 0.00 82 1019.5
20260903033246 78 162 0.0 0.0 0.00 0.00 0.00 82 1019.7
20260903032245 78 162 0.0 0.0 0.00 0.00 0.00 81 1019.7
20260903031245 79 162 0.0 0.0 0.00 0.00 0.00 81 1019.9
20260903025245 79 163 0.0 0.0 0.00 0.00 0.00 81 1020.0
20260903024245 79 162 0.0 0.0 0.00 0.00 0.00 81 1019.9
20260903023245 79 162 0.0 0.0 0.00 0.00 0.00 79 1019.7
20260903022245 80 162 0.0 0.0 0.00 0.00 0.00 78 1019.7
20260903021245 80 162 0.0 0.0 0.00 0.00 0.00 79 1019.9
20260903015245 80 162 0.0 0.0 0.00 0.00 0.00 77 1019.4
20260903014244 81 162 0.0 0.0 0.00 0.00 0.00 75 1019.4
20260903013244 81 162 0.0 0.0 0.00 0.00 0.00 74 1019.4
20260903011244 82 162 0.0 0.0 0.00 0.00 0.00 72 1019.2
20260903010244 82 162 0.0 0.0 0.00 0.00 0.00 71 1019.2
20260903005244 83 162 0.0 0.0 0.00 0.00 0.00 70 1018.9
20260903004244 84 162 0.0 0.0 0.00 0.00 0.00 68 1018.8
20260903003244 84 162 0.0 0.0 0.00 0.00 0.00 67 1018.7
20260903002244 85 162 0.0 1.0 0.00 0.00 0.00 64 1018.6
20260903001244 86 162 0.0 0.0 0.00 0.00 0.00 63 1018.5
20260903000244 87 162 0.0 2.0 0.00 0.00 0.00 61 1018.5
20260902235244 88 162 0.0 2.0 0.00 0.00 0.00 57 1018.4
20260902234244 89 129 0.0 2.0 0.00 0.00 0.00 55 1018.3
20260902233244 90 173 0.0 4.0 0.00 0.00 0.00 52 1018.4
20260902232244 91 167 3.0 3.0 0.00 0.00 0.00 52 1018.5
20260902231243 91 152 0.0 3.0 0.00 0.00 0.00 51 1018.4
20260902230243 92 179 1.0 8.0 0.00 0.00 0.00 49 1018.3
20260902225243 93 129 4.0 4.0 0.00 0.00 0.00 50 1018.3
20260902224243 93 134 4.0 7.0 0.00 0.00 0.00 48 1018.2
20260902223243 94 58 3.0 9.0 0.00 0.00 0.00 46 1018.2
20260902222243 95 73 4.0 4.0 0.00 0.00 0.00 45 1018.4
20260902221243 94 53 0.0 4.0 0.00 0.00 0.00 45 1018.3
20260902220243 95 127 4.0 5.0 0.00 0.00 0.00 44 1018.5
20260902215243 95 101 3.0 6.0 0.00 0.00 0.00 47 1018.5
20260902214243 95 125 4.0 9.0 0.00 0.00 0.00 45 1018.4
20260902213242 95 93 2.0 8.0 0.00 0.00 0.00 44 1018.5
20260902212243 96 65 2.0 3.0 0.00 0.00 0.00 46 1018.6